Regional Weather Roundup
Issued by NWS Little Rock, AR

Home | Current Version | Previous Version | Graphics & Text | Print | Product List | Glossary On
Versions: 1 2 3 4 5 6 7 8 9 10 11 12 13 14 15 16 17 18 19 20 21 22 23 24 25 26 27
000
ASUS44 KLZK 251205
RWRLZK

WEATHER ROUNDUP FOR ARKANSAS
NATIONAL WEATHER SERVICE LITTLE ROCK AR
700 AM CDT WED MAY 25 2016

NOTE: "FAIR" INDICATES FEW OR NO CLOUDS BELOW 12,000 FEET WITH NO
SIGNIFICANT WEATHER AND/OR OBSTRUCTIONS TO VISIBILITY.

ARZ001-003-010-029-251300-
NORTHWEST ARKANSAS

CITY           SKY/WX    TMP DP  RH WIND       PRES   REMARKS
FAYETTEVILLE   RAIN      62  62 100 E6        30.01S
6HR MIN TEMP:  61; 6HR MAX TEMP:  71; 6HR PCP:  0.81;

FORT SMITH     CLOUDY    67  63  87 S5        30.00R
6HR MIN TEMP:  67; 6HR MAX TEMP:  72; 6HR PCP:  0.04;

HARRISON       LGT RAIN  65  60  84 SE8       29.98F
6HR MIN TEMP:  62; 6HR MAX TEMP:  68; 6HR PCP:  0.18;

BENTONVILLE    CLOUDY    64  57  77 N6        30.04S
6HR MIN TEMP:  63; 6HR MAX TEMP:  73; 6HR PCP:  0.75;

ROGERS         CLOUDY    64  61  90 NE6       30.03F
6HR MIN TEMP:  63; 6HR MAX TEMP:  73; 6HR PCP:  0.60;

SILOAM SPGS    CLOUDY    63  54  72 SE3       30.03R
6HR MIN TEMP:  63; 6HR MAX TEMP:  72; 6HR PCP:  0.71;

HIGHFILL       CLOUDY    65  62  90 E6        30.02S
6HR MIN TEMP:  64; 6HR MAX TEMP:  73; 6HR PCP:  0.81;

SPRINGDALE     MOCLDY    63  63 100 E6        30.04F
$$

ARZ004-005-016-251300-
NORTH CENTRAL ARKANSAS

CITY           SKY/WX    TMP DP  RH WIND       PRES   REMARKS
BATESVILLE     CLOUDY    66  63  88 CALM      30.08R
6HR MIN TEMP:  63; 6HR MAX TEMP:  66; 6HR PCP:  0.01;

FLIPPIN        CLOUDY   N/A N/A N/A N7        29.99F
                                      6HR PCP:  0.02;

MTN HOME       LGT RAIN  62  61  96 CALM      30.04S
6HR MIN TEMP:  60; 6HR MAX TEMP:  62; 6HR PCP:  0.02;

$$

ARZ040-041-251300-
WEST CENTRAL ARKANSAS

CITY           SKY/WX    TMP DP  RH WIND       PRES   REMARKS
MENA           CLOUDY    68  66  94 CALM      30.04F
MOUNT IDA      HVY RAIN  66  63  90 CALM      30.05R FOG
6HR MIN TEMP:  66; 6HR MAX TEMP:  72; 6HR PCP:  0.45;

$$

ARZ009-017-025-026-028-251300-
NORTHEAST ARKANSAS

CITY           SKY/WX    TMP DP  RH WIND       PRES   REMARKS
CORNING          N/A     64  64 100 CALM      30.08S
JONESBORO      CLOUDY    66  64  93 CALM      30.07R
6HR MIN TEMP:  63; 6HR MAX TEMP:  66;

NEWPORT        CLOUDY    66  66 100 SE3       30.08R
6HR MIN TEMP:  64; 6HR MAX TEMP:  66;

WALNUT RIDGE   CLOUDY    63  61  94 CALM      30.07S
6HR MIN TEMP:  63; 6HR MAX TEMP:  64; 6HR PCP:  0.01;

BLYTHEVILLE    PTSUNNY   67  64  90 S7        30.09R
6HR MIN TEMP:  64; 6HR MAX TEMP:  67;

$$

ARZ022-023-033-042-044-251300-
CENTRAL ARKANSAS

CITY           SKY/WX    TMP DP  RH WIND       PRES   REMARKS
LITTLE ROCK    CLOUDY    69  63  81 CALM      30.07R
6HR MIN TEMP:  66; 6HR MAX TEMP:  70;

JACKSONVILLE   CLOUDY    68  66  92 E1        30.06R
6HR MIN TEMP:  66; 6HR MAX TEMP:  70; 6HR PCP: TRACE;

SEARCY         CLOUDY    64  64 100 CALM      30.07F
6HR MIN TEMP:  63; 6HR MAX TEMP:  64;

HOT SPRINGS    TSTM      69  66  90 NW6       30.09R
6HR MIN TEMP:  68; 6HR MAX TEMP:  71; 6HR PCP:  0.01;

RUSSELLVILLE   TSTM      67  64  90 S7        30.11R VSB 1
6HR MIN TEMP:  64; 6HR MAX TEMP:  68; 6HR PCP:  0.27;

CLINTON        FAIR      64  64 100 CALM      30.04F
$$

ARZ036-251300-
EAST ARKANSAS

CITY           SKY/WX    TMP DP  RH WIND       PRES   REMARKS
WEST MEMPHIS   CLOUDY    66  64  93 S6        30.09R
6HR MIN TEMP:  64; 6HR MAX TEMP:  68;

$$

ARZ050-053-066-070-073-251300-
SOUTHWEST ARKANSAS

CITY           SKY/WX    TMP DP  RH WIND       PRES   REMARKS
ARKADELPHIA    PTSUNNY   70  70 100 CALM      30.06R
6HR MIN TEMP:  69; 6HR MAX TEMP:  70; 6HR PCP: TRACE;

CAMDEN         CLOUDY    70  66  88 SE3       30.05S
TEXARKANA      CLOUDY    74  71  91 S6        30.04R
6HR MIN TEMP:  74; 6HR MAX TEMP:  77; 6HR PCP: TRACE;

EL DORADO      MOCLDY    74  72  93 SE5       30.06R
6HR MIN TEMP:  73; 6HR MAX TEMP:  76;

DE QUEEN       CLOUDY    75  73  93 CALM      30.01S
6HR MIN TEMP:  75; 6HR MAX TEMP:  78;

$$

ARZ056-057-069-251300-
SOUTHEAST ARKANSAS

CITY           SKY/WX    TMP DP  RH WIND       PRES   REMARKS
PINE BLUFF     CLOUDY    69  64  84 SE5       30.08R
6HR MIN TEMP:  67; 6HR MAX TEMP:  69;

STUTTGART      CLOUDY    70  61  73 S5        30.08R
6HR MIN TEMP:  66; 6HR MAX TEMP:  70;

MONTICELLO     CLOUDY    69  65  86 CALM      30.09R
6HR MIN TEMP:  68; 6HR MAX TEMP:  69;


$$






USA.gov is the U.S. government's official web portal to all federal, state and local government web resources and services.